www.pogodaiklimat.ru

Погода и климат >> Архив погоды >> Россия >> Якутия >> Оймякон


АРХИВ ПОГОДЫ в Оймяконе

Время (UTC), дата Ветер
(напр.,м/с)
 
Видим.   Явления Облачность Т
(С)
Тd
(С)
f
(%)
Тe
(С)
Тes
(С)
Комфортность P
(гПа)
Po
(гПа)
Тmin
(С)
Tmax
(С)
R
(мм)
R24
(мм)
S
(см)
21 10.10 штиль 0 50 км 5/0
[Cs]
-21.6 -23.4 85 -22 -22 очень
холодно
1025.6 928.2 -22.3 0
00 11.10 штиль 0 50 км 3/0
[Ci fib]
-14.1 -16.1 85 -14 -13 по сезону 1022.7 928.2
03 11.10 штиль 0 50 км 3/0
[Cc]
-8.5 -15.5 57 -9 -6 по сезону 1019.2 926.8
06 11.10 штиль 0 50 км 9/0
[Ac lent Cc]
-7.8 -15.7 53 -8 -8 по сезону 1018.1 926.2
09 11.10 штиль 0 50 км 10/0
[Ac trans Ci fib]
-12.4 -15.9 75 -12 -12 по сезону 1019.8 926.3 -6.9
12 11.10 С 1 50 км слабый снег 10/0
[Ac As Ci fib]
-13.0 -14.3 90 -15 -15 по сезону 1020.3 926.4
15 11.10 штиль 0 50 км слабый снег 10/0
[Ac trans Cs]
-13.4 -14.7 90 -13 -13 по сезону 1019.6 925.7
18 11.10 СВ 1 50 км слабый снег 10/0
[Ac trans Cs]
-13.6 -14.9 90 -16 -16 по сезону 1019.3 925.3
21 11.10 С 2 4000 м слабый снег 10/0
[Ac trans Cs]
-13.2 -14.5 90 -18 -18 по сезону 1018.7 924.9 -15.1 0.2 <0.5
00 12.10 штиль 0 10 км слабый снег 10/0
[Ac trans Cs]
-11.6 -12.9 90 -12 -11 по сезону 1017.5 924.3
03 12.10 СЗ 3 50 км {снег} 8/5 1000 м
[Cb cap Ci fib]
-6.4 -11.4 68 -12 -11 по сезону 1014.0 922.9
06 12.10 СЗ 3 50 км слабый ливневой снег 9/8 1000 м
[Cb cap Ci fib]
-7.1 -11.9 69 -13 -13 прохладно 1014.3 922.9
09 12.10 СЗ 3 50 км {ливн. осадки} 9/4 1000 м
[Cb cap Ci fib]
-9.4 -14.0 69 -15 -15 по сезону 1015.3 923.2 -5.6 0.2
12 12.10 СЗ 1 50 км слабый снег {ливн. осадки} 9/4 1000 м
[Sc Ac trans Ci fib]
-12.2 -13.5 90 -14 -14 по сезону 1016.8 923.5
15 12.10 штиль 0 50 км {снег} 5/0
[Ci fib]
-15.1 -16.4 90 -15 -15 по сезону 1018.0 923.5
18 12.10 штиль 0 50 км {снег} 1/0
[Ci fib]
-17.4 -18.6 90 -17 -17 по сезону 1019.3 923.9
21 12.10 штиль 0 50 км 1/1 1000 м
[Sc]
-18.2 -19.4 90 -18 -18 по сезону 1019.5 923.9 -18.7 0.0 <0.5
00 13.10 штиль 0 50 км 3/3 1000 м
[Sc]
-10.6 -11.9 90 -11 -10 по сезону 1016.5 923.7
03 13.10 С 2 50 км 6/6 1000 м
[Cu med, cong]
-8.3 -13.5 66 -13 -12 по сезону 1014.7 922.9
06 13.10 штиль 0 50 км 5/5 1000 м
[Sc]
-8.7 -14.6 62 -9 -9 по сезону 1014.7 922.8
09 13.10 штиль 0 50 км 5/0
[Ci fib]
-12.8 -18.0 65 -13 -13 по сезону 1016.6 923.2 -6.8
12 13.10 штиль 0 50 км 5/0
[Ci fib]
-18.6 -20.5 85 -19 -19 по сезону 1019.7 923.9
15 13.10 штиль 0 50 км 3/0
[Ci fib]
-19.3 -21.2 85 -19 -19 по сезону 1019.9 923.9
18 13.10 З 2 50 км 3/0
[Ci fib]
-17.6 -19.5 85 -23 -23 прохладно 1019.3 923.9
21 13.10 штиль 0 50 км 4/0
[Ci fib]
-19.4 -20.6 90 -19 -19 по сезону 1020.3 924.1 -20.2 <0.5
00 14.10 СВ 2 50 км 3/0
[Ci fib]
-11.8 -13.8 85 -16 -16 по сезону 1017.8 924.5
03 14.10 С 2 50 км 5/3 1000 м
[Cu hum Ci fib]
-8.4 -15.4 57 -13 -11 по сезону 1016.1 924.2
06 14.10 С 4 50 км осадки на расстоянии 9/8 930 м
[Cb cap Ci fib]
-8.5 -15.5 57 -15 -15 прохладно 1015.8 923.8
09 14.10 штиль 0 50 км 4/1 1000 м
[Sc Ci fib]
-12.8 -16.3 75 -13 -13 по сезону 1017.7 924.2 -8.4
12 14.10 штиль 0 50 км 4/0
[Ci fib]
-18.0 -19.9 85 -18 -18 по сезону 1019.8 924.2
15 14.10 штиль 0 50 км 3/0
[Ci fib]
-17.4 -19.3 85 -17 -17 по сезону 1019.7 924.3
18 14.10 штиль 0 50 км 3/0
[Ci fib]
-17.9 -19.8 85 -18 -18 по сезону 1020.4 924.7
21 14.10 штиль 0 50 км 3/0
[Ci fib]
-22.3 -24.1 85 -22 -22 прохладно 1022.4 925.1 -22.5 <0.5
00 15.10 С 1 50 км 3/0
[Ci fib]
-16.0 -17.9 85 -19 -18 по сезону 1021.0 925.9 -22.9
03 15.10 штиль 0 50 км ?/? -10.3 -15.6 65 -11 -11 по сезону 1018.1 925.4
06 15.10 СВ 2 50 км 6/6 1000 м
[Cu med, cong]
-10.0 -16.3 60 -14 -14 по сезону 1018.0 925.3
09 15.10 Ю 1 50 км 3/1 1000 м
[Sc Ci fib]
-16.5 -19.1 80 -19 -19 прохладно 1020.7 925.5 -9.8
12 15.10 штиль 0 50 км 4/0
[Ci fib]
-19.4 -21.3 85 -19 -19 по сезону 1022.4 926.0
15 15.10 З 2 50 км 3/0
[Ci fib]
-18.4 -20.3 85 -24 -24 прохладно 1021.8 925.8
18 15.10 штиль 0 50 км 1/0
[Ci fib]
-20.9 -22.8 85 -21 -21 по сезону 1022.9 925.9
21 15.10 штиль 0 50 км 8/1 1000 м
[Sc Ac trans Ci fib]
-23.2 -25.0 85 -23 -23 прохладно 1024.1 926.3 -23.3 <0.5
00 16.10 штиль 0 50 км в посл. час снег 9/6 1000 м
[Sc Ac trans Ci fib]
-16.6 -18.5 85 -17 -16 по сезону 1021.6 926.4
03 16.10 С 2 50 км слабый снег 9/4 1000 м
[Sc Ac trans Ci fib]
-11.2 -14.7 75 -16 -15 по сезону 1019.0 925.8
06 16.10 С 2 50 км слабый снег 10/4 1000 м
[Sc Ac trans Ci fib]
-10.0 -13.6 75 -14 -14 по сезону 1018.9 926.1
09 16.10 штиль 0 20 км слабый снег 10/3 1000 м
[Sc Ac trans Cs]
-11.9 -13.2 90 -12 -12 по сезону 1020.1 926.6 -10.0 0.0
12 16.10 ЮЗ 1 50 км в посл. час снег 8/1 1000 м
[Sc Ci fib]
-14.4 -15.7 90 -17 -17 по сезону 1021.5 927.1
15 16.10 штиль 0 50 км слабый снег 10/1 1000 м
[Sc Cs]
-14.1 -15.4 90 -14 -14 по сезону 1022.1 927.6
18 16.10 штиль 0 50 км слабый снег 10/1 1000 м
[Sc Cs]
-13.7 -15.0 90 -14 -14 тепло 1022.6 928.3
21 16.10 штиль 0 50 км {снег} 10/1 1000 м
[Sc Cs]
-15.8 -17.1 90 -16 -16 по сезону 1024.2 929.0 -16.5 0.0 <0.5
00 17.10 штиль 0 50 км {снег} 9/3 1000 м
[Sc Cs]
-12.5 -13.8 90 -13 -12 по сезону 1023.8 929.7
03 17.10 С 1 50 км 6/1 1000 м
[Sc Ci fib]
-4.6 -10.3 64 -7 -5 тепло 1020.9 929.7
06 17.10 штиль 0 50 км 9/4 1000 м
[St Ci fib]
-3.9 -11.6 55 -4 -4 тепло 1020.8 929.9
09 17.10 ЮЗ 2 50 км 4/1 1000 м
[Sc Ci fib]
-10.4 -14.0 75 -15 -15 по сезону 1024.3 931.0 -3.6
12 17.10 штиль 0 50 км ясно -16.2 -18.1 85 -16 -16 по сезону 1027.7 932.0
15 17.10 штиль 0 50 км 4/0
[Ci fib]
-19.0 -20.9 85 -19 -19 по сезону 1029.4 932.5

 

Местоположение метеостанции Оймякон (Якутия, Россия): широта 63.25 долгота 143.10 высота над уровнем моря 740 м.

В архиве по умолчанию представлена погода в Оймяконе за последнюю неделю. Архивные данные за месяц целиком и за предыдущие месяцы, начиная с января 2011 года, Вы можете получить, выбрав интересующий диапазон дат из раскрывающегося списка и нажав кнопку "Ввод!".

Внимание! Время в таблицах - всемирное. Для получения местного времени необходимо прибавить поправку, которая в Оймяконе равна 10 ч.

Смотрите также архив погоды в соседних городах и на ближайших метеорологических станциях:

Погода в Агаякане (Якутия, Россия) (71 км)
Погода в Юртах (Якутия, Россия) (110 км)
Погода в Делянкире (Якутия, Россия) (140 км)
Погода в Усть-Нере (Якутия, Россия) (142 км)
Погода в Восточной (Якутия, Россия) (175 км)
Погода в Сусумане (Магаданская область, Россия) (258 км)
Погода в Колымской (Магаданская область, Россия) (278 км)
Погода в Уеге (Хабаровский край, Россия) (282 км)
Погода в Теплом Ключе (Якутия, Россия) (322 км)
Погода в Ягодной (Магаданская область, Россия) (340 км)

Пояснения к столбцам:

Ветер - указаны скорость ветра в м/с - средняя за 10 мин, порывы в срок и между сроками (в фигурных скобках) и направление, откуда дует ветер: С - северный, СВ - северо-восточный, В - восточный, ЮВ - юго-восточный, Ю - южный, ЮЗ - юго-западный, З - западный, СЗ - северо-западный.
Видимость - горизонтальная дальность видимости в метрах или километрах. При видимости от 1 до 10 км при отсутствии осадков обычно наблюдается дымка, при ухудшении видимости до 1 км и менее - туман. В сухую погоду видимость может ухудшаться дымом, пылью или мглою.
Явления - указаны атмосферные явления, наблюдавшиеся в срок или в последний час перед сроком; фигурными скобками обозначены явления, наблюдавшиеся между сроками (за 1-3 часа до срока); квадратными скобками обозначены град или гололедные отложения с указанием их диаметра в мм.
Облачность - указаны через наклонную черту общая и нижняя облачность в баллах и высота нижней границы облаков в метрах; квадратными скобками обозначены формы облаков: Ci - перистые, Cs - перисто-слоистые, Cc - перисто-кучевые, Ac - высококучевые, As - высокослоистые, Sc - слоисто-кучевые, Ns - слоисто-дождевые, Cu - кучевые, Cb - кучево-дождевые. Подробнее классификацию облаков см. в Атласе облаков (PDF).
T - Температура воздуха - температура, измеренная на высоте 2 м над землей.
Td - Температура точки росы - температура, при понижении до которой содержащийся в воздухе водяной пар достигнет насыщения.
f - Относительная влажность воздуха - влажноcть воздуха, измеренная на высоте 2 м над землей.
Te - Эффективная температура - температура, которую ощущает одетый по сезону человек в тени. Характеристика душности погоды. При расчете учитывается влияние влажности воздуха и скорости ветра на теплоощущения человека.
Tes - Эффективная температура на солнце - температура, которую ощущает человек, с поправкой на солнечный нагрев. Характеристика знойности погоды. Зависит от высоты солнца над горизонтом, облачности и скорости ветра. Ночью, в пасмурную погоду, а также при ветре 12 м/с и более поправка равна нулю.
P - Атмосферное давление - приведенное к уровню моря атмосферное давление.
Po - Атмосферное давление - измеренное на уровне метеостанции атмосферное давление.
Tmin - Минимальная температура - минимум температуры воздуха на высоте 2 м над землей.
Tmax - Максимальная температура - максимум температуры воздуха на высоте 2 м над землей.
R - Количество осадков - Количество выпавших осадков за период времени, мм. При наведении курсора мыши на число - период времени, за который выпало указанное количество осадков.
R24 - Количество осадков - Количество выпавших осадков за 24 часа, мм.
S - Снежный покров - Высота снежного покрова, см. При наведении курсора мыши на число - состояние снежного покрова и степень покрытия местности в баллах.